Карточка аэропорта USCM

Внимание!
Информация на этой странице в стадии наполнения.
Если вы не увидели какой-то информации, или заметили неточность - пожалуйста сообщите нам!
Спасибо!
Команда RU-STAFF
Название аэропортаМагнитогорск
Название аэропорта (англ.)Magnitogorsk
Превышение436 ft. (132.9 m.)
Координаты53°23.586', 58°45.336'
Высота перехода7000ft
Эшелон переходаQNH>1013:FL80; 1013>QNH>977:FL90; 977>QNH:FL100;
Коды ответчика5501-5517
Зона ОрВДЕкатеринбург РПИ (USSV)
Данные METARUSCM 250240Z 05003MPS 2500 -SHRA BKN004 OVC015CB 13/13 Q1001 R36/290255 TEMPO 07015MPS 1100 TSRA VV003 RMK QBB120 QFE713
Проноз погоды (TAF)USCM 250151Z 2503/2512 04005G18MPS 6000 -SHRA OVC011CB TEMPO 2503/2512 1200 TSRA VV003
NOTAMshow/hide NOTAM
AWOS   TABLE

Информация о ВПП

ВПП Длина ВПП (м.) Покрытие Курс ВПП Частота ILS
013250Цементобетон5108.7
193250Цементобетон185109.9

Диспетчерские позиции

Позывной Наименование органа УВД Частота
USCM_TWRМагнитогорск-Вышка120.8



Спутниковое изображение